TimeMST,TemperatureF,Dew PointF,Humidity,Sea Level PressureIn,VisibilityMPH,Wind Direction,Wind SpeedMPH,Gust SpeedMPH,PrecipitationIn,Events,Conditions,WindDirDegrees,DateUTC
12:55 AM,7.0,-2.0,67,30.50,10.0,North,5.8,-,N/A,,Overcast,10,2013-01-21 07:55:00
1:55 AM,6.1,-2.0,69,30.50,10.0,NNE,3.5,-,N/A,,Overcast,30,2013-01-21 08:55:00
2:55 AM,5.0,-4.0,66,30.47,10.0,NE,5.8,-,N/A,,Overcast,50,2013-01-21 09:55:00
3:55 AM,5.0,-4.0,66,30.46,10.0,NNE,3.5,-,N/A,,Overcast,30,2013-01-21 10:55:00
4:55 AM,6.1,-2.0,69,30.45,5.0,North,3.5,-,0.00,Snow,Light Snow,360,2013-01-21 11:55:00
5:55 AM,6.1,-0.9,73,30.44,9.0,Calm,Calm,-,0.00,Snow,Light Snow,0,2013-01-21 12:55:00
6:55 AM,6.1,-0.9,73,30.44,6.0,North,4.6,-,0.00,Snow,Light Snow,10,2013-01-21 13:55:00
7:55 AM,6.1,-2.0,69,30.46,6.0,North,6.9,-,0.00,Snow,Light Snow,10,2013-01-21 14:55:00
8:25 AM,6.8,-0.4,72,30.33,1.8,NE,3.5,-,0.00,Snow,Light Snow,40,2013-01-21 15:25:00
8:38 AM,6.8,-0.4,72,30.33,2.5,NE,4.6,-,0.01,Snow,Light Snow,50,2013-01-21 15:38:00
8:55 AM,6.1,-0.0,76,30.48,2.5,NE,5.8,-,0.01,Snow,Light Snow,40,2013-01-21 15:55:00
9:47 AM,6.8,1.4,79,30.34,5.0,Calm,Calm,-,0.00,Snow,Light Snow,0,2013-01-21 16:47:00
9:55 AM,7.0,1.0,77,30.48,4.0,Calm,Calm,-,0.00,Snow,Light Snow,0,2013-01-21 16:55:00
10:55 AM,8.1,-0.0,70,30.47,8.0,Calm,Calm,-,0.00,Snow,Light Snow,0,2013-01-21 17:55:00
11:39 AM,8.6,1.4,73,30.31,2.0,Calm,Calm,-,0.01,Snow,Light Snow,0,2013-01-21 18:39:00
11:55 AM,8.1,3.0,80,30.44,2.5,Calm,Calm,-,0.01,Snow,Light Snow,0,2013-01-21 18:55:00
12:03 PM,8.6,3.2,79,30.30,3.0,Calm,Calm,-,0.00,Snow,Light Snow,0,2013-01-21 19:03:00
12:55 PM,9.0,3.0,77,30.40,6.0,Calm,Calm,-,0.00,Snow,Light Snow,0,2013-01-21 19:55:00
1:55 PM,10.9,3.9,73,30.38,7.0,Calm,Calm,-,0.00,Snow,Light Snow,0,2013-01-21 20:55:00
2:55 PM,10.9,5.0,77,30.38,3.0,Calm,Calm,-,0.00,Snow,Light Snow,0,2013-01-21 21:55:00
3:38 PM,12.2,5.0,73,30.25,2.0,Calm,Calm,-,0.00,Snow,Light Snow,0,2013-01-21 22:38:00
3:46 PM,12.2,5.0,73,30.25,1.5,Calm,Calm,-,0.00,Snow,Light Snow,0,2013-01-21 22:46:00
3:55 PM,10.9,5.0,77,30.38,1.5,Calm,Calm,-,0.00,Snow,Light Snow,0,2013-01-21 22:55:00
4:34 PM,10.4,6.8,85,30.23,2.5,East,3.5,-,0.01,Snow,Light Snow,80,2013-01-21 23:34:00
4:39 PM,10.4,6.8,85,30.23,3.0,East,4.6,-,0.01,Snow,Light Snow,80,2013-01-21 23:39:00
4:55 PM,10.0,5.0,80,30.37,7.0,East,3.5,-,0.01,,Overcast,80,2013-01-21 23:55:00
5:55 PM,9.0,6.1,88,30.36,9.0,East,5.8,-,0.00,,Overcast,100,2013-01-22 00:55:00
6:55 PM,10.0,6.1,84,30.36,10.0,East,5.8,-,N/A,,Overcast,90,2013-01-22 01:55:00
7:55 PM,10.0,5.0,80,30.33,10.0,ESE,5.8,-,N/A,,Overcast,110,2013-01-22 02:55:00
8:55 PM,10.0,5.0,80,30.33,10.0,ESE,6.9,-,N/A,,Overcast,110,2013-01-22 03:55:00
9:55 PM,10.0,6.1,84,30.32,10.0,East,6.9,-,N/A,,Overcast,100,2013-01-22 04:55:00
10:55 PM,10.0,6.1,84,30.31,10.0,East,6.9,-,N/A,,Overcast,100,2013-01-22 05:55:00
11:55 PM,10.0,6.1,84,30.31,10.0,East,6.9,-,N/A,,Overcast,90,2013-01-22 06:55:00